Theta_e
327 330 333 333 334 335 336 339 340 342 342 343 346 347 346 343 338 332 332 332 329 329 331 334 335 334 334 331 333 334 335 334 333
323 328 331 334 335 336 337 338 340 342 343 344 345 346 344 336 332 328 329 329 330 330 332 333 333 333 333 332 333 335 334 333 333
322 326 330 334 336 337 338 339 341 343 345 344 345 345 341 335 330 328 328 328 330 328 329 332 333 332 332 333 333 334 333 332 332
320 323 328 332 336 339 339 340 341 342 344 345 345 343 338 334 328 328 329 330 332 330 330 331 332 332 332 332 332 333 332 331 332
318 323 327 331 335 338 338 339 340 342 344 345 347 344 337 333 330 330 330 331 332 331 331 330 331 332 332 332 333 333 332 332 333
317 322 325 329 331 334 337 337 340 342 344 345 347 343 335 332 330 330 331 332 331 330 331 330 332 333 333 332 332 331 332 332 331
316 320 324 326 328 331 334 335 337 341 343 345 346 341 336 333 331 331 332 332 331 331 330 330 331 332 331 330 329 330 332 332 331
317 317 318 324 327 329 331 332 334 338 341 345 345 339 336 335 334 333 333 332 332 331 330 331 332 332 330 330 330 331 332 332 331
317 318 319 320 323 326 327 329 331 336 340 343 345 340 338 338 335 334 334 334 333 332 331 331 330 330 330 330 331 328 328 332 332
317 318 319 318 321 324 325 327 331 334 338 343 344 341 340 337 332 333 333 333 332 332 331 332 331 331 331 331 332 325 324 327 332
314 316 319 320 321 325 327 328 330 334 338 341 342 341 339 334 333 332 332 333 333 332 331 331 330 330 331 330 332 322 321 325 329
315 319 320 324 325 324 326 330 333 335 338 340 340 338 336 335 334 333 334 333 331 332 332 331 331 333 330 328 330 321 320 323 328
315 317 318 319 320 322 326 329 335 335 335 336 337 336 336 336 336 337 334 333 332 332 332 332 332 329 329 325 330 322 318 320 325
318 318 320 323 323 325 330 333 335 332 332 333 334 334 335 335 335 333 332 331 333 332 330 328 328 328 328 329 329 327 316 313 323
324 324 326 327 325 324 333 334 333 331 330 331 332 331 331 331 332 333 331 328 329 329 328 325 325 326 324 329 326 314 315 310 312
325 326 327 329 329 328 327 330 330 326 327 329 327 325 324 325 326 327 327 325 325 324 325 324 326 326 325 324 319 315 307 308 309
324 325 325 327 325 323 322 324 325 325 327 328 325 322 323 323 323 323 325 324 322 323 324 324 324 322 321 320 316 314 313 312 311
324 324 325 324 322 322 323 323 324 325 326 326 324 323 323 323 324 323 320 308 313 322 316 318 321 321 320 315 313 312 306 307 309
324 323 324 321 320 321 321 323 324 325 328 328 326 324 324 322 322 320 315 312 309 300 298 298 297 298 310 308 304 298 297 296 294
320 323 324 323 320 321 322 323 324 326 325 325 324 323 322 322 319 317 316 314 311 309 303 296 294 296 297 299 298 296 295 294 293
Wind_Speed
12 17 18 20 20 18 17 17 15 14 14 14 13 13 12 10 9 6 6 7 4 5 4 4 5 5 5 5 5 4 4 2 3
17 19 20 21 19 19 19 18 19 19 15 14 13 14 11 11 9 9 8 8 6 4 4 4 5 6 6 5 4 5 4 3 3
18 18 17 18 19 20 19 20 19 17 16 17 13 14 12 11 11 11 9 8 8 7 7 5 6 5 5 5 5 5 4 3 2
18 18 18 19 19 19 21 19 16 16 16 16 15 15 13 12 11 11 9 10 9 8 7 7 6 6 6 5 6 5 4 4 4
12 13 17 18 18 18 17 17 17 18 17 16 17 14 13 14 12 11 11 10 10 9 9 7 8 7 6 6 6 5 5 5 4
9 10 9 11 11 15 16 17 18 18 17 19 16 13 13 13 13 13 13 11 9 8 8 8 7 8 8 8 7 5 6 5 5
10 12 12 11 11 15 17 16 16 16 17 16 14 14 15 16 17 18 13 7 5 7 7 7 8 8 7 6 6 6 6 5 5
8 10 10 14 17 14 10 10 11 13 14 14 15 14 16 19 16 11 12 11 5 5 6 7 5 5 5 7 6 6 6 6 6
12 13 16 13 9 8 9 10 12 11 11 13 13 14 16 10 10 9 9 9 7 8 9 10 7 10 8 9 5 7 8 7 5
16 16 13 12 12 12 9 10 9 12 13 9 11 12 10 10 13 14 14 12 15 13 11 9 12 10 9 9 5 8 9 9 5
10 8 8 8 7 6 8 6 8 7 7 10 10 11 11 13 15 15 15 17 17 15 14 14 8 7 9 6 4 8 12 9 6
6 4 6 7 7 6 5 7 6 7 6 7 9 11 12 13 15 17 15 15 13 11 6 4 4 2 4 2 5 15 10 6 5
9 9 7 7 5 3 4 1 6 8 9 9 10 10 10 12 12 11 5 5 6 6 5 5 4 3 2 3 10 10 13 5 3
9 9 9 5 8 5 1 2 4 3 6 9 9 11 9 9 8 6 6 3 3 5 7 8 9 8 7 3 11 9 12 8 4
12 11 9 8 6 6 3 3 4 8 5 3 12 13 11 10 9 8 7 7 4 6 8 7 6 3 2 2 5 4 9 7 4
8 8 7 5 7 9 12 4 3 10 6 8 12 13 11 9 9 10 11 12 10 6 7 6 4 3 4 2 2 2 5 7 7
7 4 5 4 9 10 8 7 9 11 11 12 13 13 12 10 10 9 9 6 8 7 4 5 5 4 4 3 3 4 2 3 2
5 6 8 8 7 6 9 11 10 10 12 14 12 13 11 9 4 4 4 6 5 3 2 1 4 3 4 4 4 3 3 3 3
4 4 4 5 4 6 7 10 10 9 10 11 11 9 7 5 4 4 5 4 4 10 7 5 2 3 5 3 6 8 5 5 5
5 6 6 5 4 3 6 5 6 3 1 3 4 5 4 4 5 5 5 4 4 5 7 9 9 9 11 7 8 7 6 3 4
Wind_Direction
192 197 194 195 192 191 193 194 198 199 200 200 191 191 194 188 181 185 189 180 179 187 187 193 174 179 179 189 184 188 183 192 219
195 196 195 195 192 193 194 196 199 199 196 204 194 195 190 185 180 176 189 184 183 181 183 189 183 186 182 194 197 205 185 203 212
203 200 195 195 194 194 197 201 202 198 200 202 195 194 193 186 187 185 181 167 189 187 187 185 180 184 195 204 211 203 191 220 232
198 195 192 194 197 197 200 202 197 200 200 197 197 194 189 183 184 184 174 180 187 187 176 184 188 185 198 211 220 209 202 218 234
200 195 195 195 195 195 198 201 199 200 201 200 205 195 184 187 176 180 182 191 186 176 183 180 180 186 202 210 225 223 214 222 225
185 181 185 190 184 196 196 200 203 203 201 207 199 186 181 182 180 184 190 191 181 182 179 187 189 191 201 208 207 218 222 217 228
186 194 188 182 188 198 200 200 200 203 207 203 196 185 187 189 187 191 180 174 183 188 193 186 202 204 206 207 212 211 228 219 228
165 187 182 196 201 203 194 193 197 204 208 199 193 189 191 201 193 158 160 147 125 255 189 197 201 216 221 230 204 219 231 229 237
200 205 206 202 192 184 187 190 197 198 200 202 190 196 206 182 155 149 143 107 352 235 227 214 177 215 207 221 219 222 239 240 246
204 214 201 184 184 193 190 191 179 195 200 180 183 195 191 156 153 156 154 157 182 229 235 232 220 209 208 220 218 222 243 229 229
202 175 171 184 173 182 206 181 192 183 174 178 177 183 172 160 163 168 175 189 198 199 219 226 209 194 217 208 206 246 246 222 227
153 170 155 178 179 185 150 176 175 174 165 157 165 178 170 166 171 176 186 214 194 198 193 186 213 180 184 219 276 245 259 263 255
80 77 62 61 55 32 67 237 174 168 171 156 174 166 164 172 178 194 193 215 150 124 134 146 169 160 168 181 268 267 266 234 232
80 76 66 65 68 68 326 127 139 195 163 174 130 126 136 144 143 132 119 118 121 124 135 161 175 179 168 228 254 271 274 222 193
75 75 59 35 49 64 76 93 160 139 86 138 124 116 120 114 114 118 123 125 144 170 177 202 220 204 310 229 213 260 243 185 166
66 84 81 83 75 58 41 50 75 88 118 135 108 106 104 116 130 140 156 166 176 207 201 155 158 168 227 225 139 197 130 133 141
37 18 46 63 74 70 66 80 99 126 135 124 116 123 139 155 160 170 188 174 170 179 181 128 204 163 218 173 181 197 155 119 113
48 44 19 19 82 127 117 122 130 138 139 135 144 160 164 167 155 145 88 42 10 96 75 144 161 177 176 154 206 204 143 158 194
42 75 128 124 94 96 121 125 142 157 164 158 158 164 167 139 122 109 129 149 113 54 49 49 239 148 116 111 101 126 164 203 207
11 25 40 68 98 104 115 136 138 139 186 138 132 123 141 153 138 150 141 163 159 129 50 59 52 93 106 112 136 94 55 38 164